Tracking 27111 objects as of 29-Mar-2023
HD Live streaming from Space Station
objects crossing your sky now

SHIYAN 22B (SY-22B)

Track SHIYAN 22B (SY-22B) now!
10-day predictions


NORAD ID: 55243
Int'l Code: 2023-006B
Perigee: 510.8 km
Apogee: 523.7 km
Inclination: 43.2 °
Period: 94.8 minutes
Semi major axis: 6888 km
RCS: Unknown
Launch date: January 13, 2023
Source: People's Republic of China (PRC)
Launch site: Jiuquan Satellite Launch Center, China (JSC)
Your satellite tracking list
Your tracking list is empty




NASA's NSSDC Master Catalog

Two Line Element Set (TLE):
1 55243U 23006B   23088.05828656  .00015289  00000-0  73505-3 0  9999
2 55243  43.2012 151.8400 0009327  31.3962  40.6589 15.18588896 11369
Source of the keplerian elements: AFSPC